N3DXC Weather Reports


time (UTC)temp
F
wind
direction
speed
knots
gust
knots
rain 1hr
in
rain 24hr
in
rain mn
in
humidity
%
barometer
mb
20260504030455 46 239 3.5 5.2 0.00 0.00 0.00 60 1014.2
20260504025954 46 230 4.3 6.1 0.00 0.00 0.00 59 1014.3
20260504025454 46 244 4.3 5.2 0.00 0.00 0.00 59 1014.3
20260504024954 46 225 5.2 6.1 0.00 0.00 0.00 60 1014.3
20260504024456 46 234 4.3 5.2 0.00 0.00 0.00 59 1014.3
20260504023955 46 236 4.3 6.1 0.00 0.00 0.00 59 1014.3
20260504023455 46 223 5.2 6.1 0.00 0.00 0.00 59 1014.3
20260504022955 46 244 4.3 7.8 0.00 0.00 0.00 59 1014.4
20260504022455 46 244 7.8 7.8 0.00 0.00 0.00 59 1014.4
20260504021954 46 240 7.0 7.8 0.00 0.00 0.00 58 1014.4
20260504021454 47 254 6.1 7.8 0.00 0.00 0.00 58 1014.4
20260504020955 47 227 4.3 8.7 0.00 0.00 0.00 58 1014.4
20260504020455 47 236 6.1 8.7 0.00 0.00 0.00 57 1014.3
20260504015954 47 239 7.0 8.7 0.00 0.00 0.00 57 1014.3
20260504015455 47 250 8.7 8.7 0.00 0.00 0.00 57 1014.3
20260504014955 47 227 5.2 7.0 0.00 0.00 0.00 57 1014.3
20260504014455 47 244 7.0 7.8 0.00 0.00 0.00 57 1014.2
20260504013955 47 234 5.2 7.0 0.00 0.00 0.00 57 1014.2
20260504013458 47 232 5.2 7.0 0.00 0.00 0.00 57 1014.2
20260504012956 47 230 5.2 7.0 0.00 0.00 0.00 56 1014.2
20260504012455 47 246 6.1 7.8 0.00 0.00 0.00 56 1014.1
20260504011955 47 225 6.1 7.8 0.00 0.00 0.00 55 1014.1
20260504011455 48 234 3.5 6.1 0.00 0.00 0.00 55 1014.0
20260504010955 48 216 3.5 7.0 0.00 0.00 0.00 55 1014.1
20260504005457 48 225 4.3 6.1 0.00 0.00 0.00 54 1014.1
20260504004457 49 240 5.2 6.1 0.00 0.00 0.00 53 1014.0
20260504003956 49 232 4.3 7.0 0.00 0.00 0.00 52 1014.0
20260504003457 50 230 6.1 7.8 0.00 0.00 0.00 51 1013.9
20260504002956 50 237 7.0 9.6 0.00 0.00 0.00 50 1013.9
20260504002457 50 248 7.0 7.8 0.00 0.00 0.00 51 1014.0
20260504001956 50 232 4.3 7.8 0.00 0.00 0.00 51 1013.9
20260504001455 51 246 7.8 9.6 0.00 0.00 0.00 49 1013.9
20260504000956 51 237 7.8 10.4 0.00 0.00 0.00 49 1013.9
20260504000455 51 244 7.8 9.6 0.00 0.00 0.00 48 1013.8
20260503235955 51 247 8.7 12.2 0.00 0.00 0.00 48 1013.8
20260503235455 52 241 7.8 13.0 0.00 0.00 0.00 47 1013.8
20260503234954 52 261 6.1 13.0 0.00 0.00 0.00 47 1013.8
20260503234455 52 226 7.0 10.4 0.00 0.00 0.00 47 1013.8
20260503233955 52 254 6.1 11.3 0.00 0.00 0.00 46 1013.8
20260503233456 53 253 8.7 13.9 0.00 0.00 0.00 45 1013.9
20260503232955 52 253 12.2 14.8 0.00 0.00 0.00 45 1013.9
20260503232456 53 247 9.6 16.5 0.00 0.00 0.00 45 1013.9
20260503231955 53 272 14.8 15.6 0.00 0.00 0.00 44 1013.9
20260503231455 53 260 7.0 11.3 0.00 0.00 0.00 44 1013.9
20260503230955 53 248 11.3 13.0 0.00 0.00 0.00 43 1013.9
20260503230455 53 257 11.3 14.8 0.00 0.00 0.00 43 1013.9
20260503225955 53 251 9.6 17.4 0.00 0.00 0.00 43 1014.0
20260503225455 53 262 7.8 13.9 0.00 0.00 0.00 44 1013.9
20260503224955 53 248 13.0 15.6 0.00 0.00 0.00 43 1013.9
20260503224455 53 243 12.2 19.1 0.00 0.00 0.00 42 1013.8
20260503223955 54 234 13.9 19.1 0.00 0.00 0.00 41 1013.9
20260503223455 54 248 11.3 15.6 0.00 0.00 0.00 42 1013.8
20260503222958 54 265 9.6 14.8 0.00 0.00 0.00 41 1013.8
20260503222455 54 255 11.3 14.8 0.00 0.00 0.00 42 1013.8
20260503221955 54 244 7.8 15.6 0.00 0.00 0.00 43 1013.9
20260503221455 53 261 15.6 15.6 0.00 0.00 0.00 42 1013.9
20260503220955 55 260 10.4 17.4 0.00 0.00 0.00 42 1013.9
20260503220455 54 261 12.2 13.9 0.00 0.00 0.00 41 1013.8
20260503215955 54 262 14.8 14.8 0.00 0.00 0.00 42 1013.8
20260503215455 54 251 10.4 19.1 0.00 0.00 0.00 42 1013.9
20260503214955 54 261 13.9 20.9 0.00 0.00 0.00 40 1013.9
20260503214455 55 258 14.8 15.6 0.00 0.00 0.00 40 1013.9
20260503213955 54 268 14.8 16.5 0.00 0.00 0.00 42 1013.9
20260503213455 54 281 6.1 17.4 0.00 0.00 0.00 42 1013.8
20260503212955 54 265 7.8 17.4 0.00 0.00 0.00 41 1013.9
20260503212455 54 233 10.4 14.8 0.00 0.00 0.00 42 1013.9
20260503211955 53 268 12.2 17.4 0.00 0.00 0.00 43 1013.9
20260503211455 54 255 11.3 18.2 0.00 0.00 0.00 44 1014.0
20260503210955 54 226 12.2 15.6 0.00 0.00 0.00 42 1013.9
20260503210455 54 248 12.2 20.0 0.00 0.00 0.00 42 1014.0
20260503205956 54 277 13.0 13.0 0.00 0.00 0.00 41 1013.9
20260503205455 54 247 7.8 13.0 0.00 0.00 0.00 44 1013.9
20260503204955 54 275 9.6 18.2 0.00 0.00 0.00 46 1014.0
20260503204455 53 255 15.6 20.0 0.00 0.00 0.00 42 1014.0
20260503203955 53 255 10.4 20.0 0.00 0.00 0.00 44 1014.0
20260503203455 54 262 14.8 16.5 0.00 0.00 0.00 41 1013.9
20260503202956 54 268 10.4 17.4 0.00 0.00 0.00 46 1014.0
20260503202455 53 278 13.0 20.0 0.00 0.00 0.00 45 1014.1
20260503201955 53 248 14.8 17.4 0.00 0.00 0.00 44 1014.1
20260503201455 53 300 8.7 16.5 0.00 0.00 0.00 43 1014.1
20260503200955 53 274 18.2 19.1 0.00 0.00 0.00 42 1014.2
20260503200455 53 271 8.7 19.1 0.00 0.00 0.00 44 1014.2
20260503195955 53 279 7.8 13.0 0.00 0.00 0.00 43 1014.3
20260503195455 54 278 8.7 10.4 0.00 0.00 0.00 43 1014.3
20260503194957 54 285 7.0 19.1 0.00 0.00 0.00 43 1014.5
20260503194456 54 210 12.2 21.7 0.00 0.00 0.00 44 1014.5
20260503193958 53 253 14.8 18.2 0.00 0.00 0.00 42 1014.6
20260503193456 54 258 14.8 14.8 0.00 0.00 0.00 44 1014.7
20260503192956 53 278 10.4 18.2 0.00 0.00 0.00 44 1014.7
20260503192455 53 264 7.0 14.8 0.00 0.00 0.00 43 1014.7
20260503191955 53 268 12.2 15.6 0.00 0.00 0.00 42 1014.8
20260503191456 53 282 7.8 18.2 0.00 0.00 0.00 45 1014.9
20260503190955 53 274 7.8 16.5 0.00 0.00 0.00 44 1014.8
20260503190455 53 217 12.2 16.5 0.00 0.00 0.00 47 1015.1
20260503185956 52 253 14.8 18.2 0.00 0.00 0.00 43 1015.1
20260503185455 52 265 13.9 21.7 0.00 0.00 0.00 43 1015.1
20260503184956 53 232 13.0 17.4 0.00 0.00 0.00 45 1015.2
20260503184455 52 262 15.6 22.6 0.00 0.00 0.00 43 1015.3
20260503183955 52 275 11.3 17.4 0.00 0.00 0.00 43 1015.3
20260503183459 52 260 7.0 17.4 0.00 0.00 0.00 44 1015.3
20260503182956 53 289 13.0 13.0 0.00 0.00 0.00 45 1015.4
20260503182455 52 257 9.6 17.4 0.00 0.00 0.00 44 1015.4
20260503181955 51 257 7.8 12.2 0.00 0.00 0.00 43 1015.5
20260503181456 52 282 10.4 18.2 0.00 0.00 0.00 44 1015.5
20260503180956 51 262 16.5 16.5 0.00 0.00 0.00 44 1015.5
20260503180457 53 281 10.4 16.5 0.00 0.00 0.00 47 1015.6
20260503175956 52 305 7.8 15.6 0.00 0.00 0.00 43 1015.5
20260503175456 52 282 13.9 14.8 0.00 0.00 0.00 46 1015.5
20260503174956 51 274 9.6 16.5 0.00 0.00 0.00 47 1015.5
20260503174456 50 264 10.4 19.1 0.00 0.00 0.00 46 1015.5
20260503173956 51 241 10.4 20.0 0.00 0.00 0.00 48 1015.6
20260503173456 51 248 18.2 18.2 0.00 0.00 0.00 48 1015.7
20260503172956 51 241 13.0 14.8 0.00 0.00 0.00 45 1015.7
20260503172456 51 274 7.0 19.1 0.00 0.00 0.00 43 1015.7
20260503171955 51 243 11.3 20.9 0.00 0.00 0.00 45 1015.9
20260503171457 51 279 18.2 20.9 0.00 0.00 0.00 45 1015.8
20260503170956 51 255 12.2 18.2 0.00 0.00 0.00 48 1015.8
20260503170456 50 271 9.6 20.0 0.00 0.00 0.00 48 1015.8
20260503150956 45 241 15.6 19.1 0.00 0.00 0.00 56 1016.4
20260503150457 46 236 19.1 19.1 0.00 0.00 0.00 60 1016.4
20260503130956 39 299 7.0 12.2 0.00 0.00 0.00 79 1016.5
20260503130456 38 288 5.2 12.2 0.00 0.00 0.00 77 1016.4
20260503110456 31 268 3.5 4.3 0.00 0.00 0.00 93 1017.0
20260503090456 30 282 4.3 5.2 0.00 0.00 0.00 90 1015.4
20260503081456 32 282 2.6 3.5 0.00 0.00 0.00 86 1015.3
20260503080957 32 270 2.6 5.2 0.00 0.00 0.00 86 1015.3
20260503080456 32 292 3.5 4.3 0.00 0.00 0.00 86 1015.3
20260503072457 33 274 2.6 3.5 0.00 0.00 0.00 84 1015.1
20260503071956 33 262 2.6 3.5 0.00 0.00 0.00 83 1014.9
20260503071456 33 274 1.7 5.2 0.00 0.00 0.00 82 1014.9
20260503070957 34 277 4.3 4.3 0.00 0.00 0.00 82 1014.9
20260503070456 34 281 1.7 3.5 0.00 0.00 0.00 81 1014.9
20260503054958 36 305 1.7 7.0 0.00 0.00 0.00 77 1014.9
20260503054457 36 316 4.3 5.2 0.00 0.00 0.00 78 1014.9
20260503053957 36 316 1.7 7.0 0.00 0.00 0.00 78 1014.9
20260503053457 36 305 0.9 4.3 0.00 0.00 0.00 78 1015.1
20260503052958 36 295 4.3 4.3 0.00 0.00 0.00 78 1015.1
20260503052457 36 291 5.2 5.2 0.00 0.00 0.00 78 1015.2
20260503051958 35 298 2.6 3.5 0.00 0.00 0.00 79 1015.2
20260503051457 36 305 1.7 5.2 0.00 0.00 0.00 80 1015.3
20260503050957 35 295 2.6 4.3 0.00 0.00 0.00 80 1015.3
20260503050459 36 298 3.5 4.3 0.00 0.00 0.00 80 1015.3
20260503045958 36 300 2.6 4.3 0.00 0.00 0.00 80 1015.3
20260503045457 36 270 3.5 5.2 0.00 0.00 0.00 80 1015.4
20260503044958 36 272 2.6 4.3 0.00 0.00 0.00 80 1015.3
20260503044457 36 293 4.3 5.2 0.00 0.00 0.00 80 1015.3
20260503043957 36 298 2.6 5.2 0.00 0.00 0.00 79 1015.4
20260503043457 36 284 4.3 5.2 0.00 0.00 0.00 79 1015.4
20260503042957 36 272 2.6 4.3 0.00 0.00 0.00 78 1015.4
20260503042457 36 275 3.5 5.2 0.00 0.00 0.00 77 1015.4
20260503041957 37 278 3.5 6.1 0.00 0.00 0.00 76 1015.4
20260503041458 37 298 3.5 4.3 0.00 0.00 0.00 74 1015.4
20260503040958 37 300 4.3 4.3 0.00 0.00 0.00 74 1015.4
20260503040457 37 309 2.6 3.5 0.00 0.00 0.00 74 1015.4
20260503035957 37 324 1.7 4.3 0.00 0.00 0.00 74 1015.4
20260503035458 37 319 3.5 4.3 0.00 0.00 0.00 75 1015.4
20260503035000 37 327 2.6 3.5 0.00 0.00 0.00 75 1015.4
20260503034457 37 316 2.6 3.5 0.00 0.00 0.00 75 1015.4
20260503033958 37 305 2.6 5.2 0.00 0.00 0.00 76 1015.4
20260503033500 37 296 4.3 4.3 0.00 0.00 0.00 75 1015.5
20260503032958 37 274 4.3 5.2 0.00 0.00 0.00 75 1015.5
20260503032457 37 298 1.7 5.2 0.00 0.00 0.00 76 1015.5
20260503031957 38 282 1.7 4.3 0.00 0.00 0.00 76 1015.5
20260503031459 37 258 3.5 5.2 0.00 0.00 0.00 76 1015.5
20260503030957 38 293 3.5 4.3 0.00 0.00 0.00 75 1015.6